Home   Weather   Volta Redonda   Past weeks
Flag for Brazil

Past Weather in Volta Redonda, Rio de Janeiro, Brazil — Yesterday and Last 2 Weeks

Now
73 °F

Scattered clouds.


Feels Like: 77 °F
Forecast: 69 / 54 °F
Wind: 15 mph from Southeast

Location: Galeao

Current Time: Sep 23, 2019 at 3:36:49 pm

Latest Report: Sep 23, 2019 at 3:00 pm


Visibility: N/A

Pressure: 30.27 "Hg

Humidity: 47%

Dew Point: 52 °F

Location of Volta RedondaLocation

Past Weather in Volta Redonda — Graph

°F

Volta Redonda Temperature Yesterday

Maximum temperature yesterday: 73 °F (at 9:25 am)
Minimum temperature yesterday: 66 °F (at 10:00 pm)
Average temperature yesterday: 71 °F

High & Low Weather Summary for the Past Weeks

 TemperatureHumidityPressure
High100 °F (Sep 18, 1:00 pm)94% (Sep 9, 4:00 am)30.33 "Hg (Sep 9, 4:00 am)
Low64 °F (Sep 9, 6:00 am)22% (Sep 18, 1:00 pm)29.65 "Hg (Sep 18, 2:00 pm)
Average76 °F74%29.98 "Hg
* Reported Sep 8 2:00 pm — Sep 23 2:00 pm, Volta Redonda. Weather by CustomWeather, © 2019

Note: Actual official high and low records may vary slightly from our data, if they occured in-between our weather recording intervals... More about our weather records

Advertising

Volta Redonda Weather History for the Previous 24 Hours

Scroll right to see more
 ConditionsComfort  
Time TempWeatherWind HumidityBarometerVisibility
2:00 pm
Mon, Sep 23
75 °FScattered clouds.14 mph41%30.27 "HgN/A
1:00 pm75 °FPassing clouds.12 mph39%30.30 "HgN/A
12:00 pm73 °FPartly sunny.13 mph44%30.30 "HgN/A
11:00 am73 °FBroken clouds.14 mph50%30.33 "HgN/A
10:00 am70 °FPartly sunny.8 mph69%30.33 "HgN/A
9:00 am68 °FScattered clouds.5 mph78%30.33 "HgN/A
8:00 am66 °FLight rain. Mostly cloudy.3 mph83%30.33 "HgN/A
7:00 am64 °FLight rain. More clouds than sun.6 mph88%30.30 "Hg5 mi
6:00 am64 °FMore clouds than sun.5 mph88%30.27 "HgN/A
5:00 am66 °FOvercast.3 mph78%30.27 "HgN/A
4:00 am64 °FMostly cloudy.2 mph83%30.24 "HgN/A
3:00 am64 °FFog.6 mph83%30.27 "Hg3 mi
2:00 am64 °FLight rain. Mostly cloudy.6 mph88%30.27 "Hg4 mi
1:00 am64 °FLight rain. Mostly cloudy.6 mph94%30.27 "Hg4 mi
12:00 am64 °FLight rain. Mostly cloudy.7 mph94%30.30 "Hg2 mi
11:00 pm
Sun, Sep 22
66 °FLight rain. Fog.6 mph83%30.30 "Hg2 mi
10:00 pm66 °FMostly cloudy.6 mph88%30.27 "HgN/A
9:00 pm70 °FMostly cloudy.8 mph78%30.24 "HgN/A
8:00 pm68 °FLight rain. Overcast.12 mph88%30.21 "HgN/A
7:00 pm68 °FMostly cloudy.13 mph88%30.18 "Hg5 mi
6:00 pm70 °FLight rain. Mostly cloudy.9 mph88%30.18 "Hg4 mi
5:35 pm70 °FLight rain. Fog.8 mph88%30.15 "Hg2 mi
5:00 pm72 °FLight rain. More clouds than sun.8 mph83%30.15 "Hg4 mi
4:24 pm72 °FMostly cloudy.8 mph83%30.12 "Hg5 mi
4:00 pm72 °FLight rain. Fog.7 mph88%30.12 "Hg2 mi
3:00 pm72 °FLight rain. Fog.7 mph88%30.09 "Hg2 mi
Weather by CustomWeather, © 2019

See weather overview